Regional Weather Roundup
Issued by NWS

Home | Current Version | Previous Version | Text Only | Print | Product List | Glossary Off
Versions: 1 2 3 4 5 6 7 8 9 10 11 12 13 14 15 16 17 18 19 20 21 22 23 24 25 26 27 28 29 30 31 32 33 34 35 36 37 38 39 40 41 42 43 44 45 46 47 48 49 50

487
ASUS43 KOAX 240102
RWRNE

WEATHER ROUNDUP FOR NEBRASKA
NATIONAL WEATHER SERVICE OMAHA NE
800 PM CDT SUN APR 23 2017

NOTES: SATELLITE DATA IS BEING USED TO AUGMENT CLOUD COVER ABOVE
       12000 FEET.
       "FAIR" INDICATES FEW OR NO CLOUDS BELOW 12,000 FEET WITH NO
       SIGNIFICANT WEATHER AND/OR OBSTRUCTIONS TO VISIBILITY.

  * THESE STATIONS DO NOT REPORT WEATHER SUCH AS RAIN...SNOW OR FOG.

NEZ001>004-019>022-054>056-240200-
NEBRASKA PANHANDLE

CITY           SKY/WX    TMP DP  RH WIND       PRES   REMARKS
SCOTTSBLUFF    CLOUDY    70  29  21 S9        29.65F
ALLIANCE       CLOUDY    66  40  38 S14G25    29.67F
CHADRON        CLOUDY    67  38  34 S12       29.60F
KIMBALL        CLOUDY    65  43  44 SE14      29.70F
SIDNEY         CLOUDY    64  40  41 S17       29.70F
$$

NEZ057>060-069>072-079>082-240200-
SOUTHWEST NEBRASKA

CITY           SKY/WX    TMP DP  RH WIND       PRES   REMARKS
NORTH PLATTE   MOCLDY    66  36  32 S17G28    29.75F
IMPERIAL       CLOUDY    64  37  36 S20       29.74F
LEXINGTON      CLOUDY    65  25  21 S21G28    29.80F
MCCOOK         CLOUDY    65  35  33 S17G31    29.78F
OGALLALA       PTCLDY    69  37  31 S15G22    29.72F
$$

NEZ005>010-023>029-035>040-094-240200-
NORTH CENTRAL NEBRASKA

CITY           SKY/WX    TMP DP  RH WIND       PRES   REMARKS
VALENTINE      CLOUDY    69  36  29 S16       29.69F
AINSWORTH      MOCLDY    64  38  37 S13       29.72F
BROKEN BOW     CLOUDY    65  25  22 S16G29    29.78F
O`NEILL        CLOUDY    65  24  20 S16G23    29.78S
ORD            CLEAR     65  26  23 S14       29.79F
THEDFORD       CLOUDY    68  38  33 S18G29    29.74F
$$

NEZ041-046>049-061>064-073>077-083>087-240200-
SOUTH CENTRAL NEBRASKA

CITY           SKY/WX    TMP DP  RH WIND       PRES   REMARKS
GRAND ISLAND   CLOUDY    64  29  26 S18       29.85F
AURORA         CLOUDY    64  29  27 S15G23    29.86F
HASTINGS       CLOUDY    64  30  27 S16G26    29.87F
HEBRON         CLOUDY    63  29  28 S12G18    29.91F
HOLDREGE       CLOUDY    63  29  27 S16G25    29.83F
KEARNEY *      CLOUDY    64  28  25 S22G29    29.84S
YORK           PTCLDY    64  27  24 S17G25    29.88F
$$

NEZ011>018-030>034-042>045-240200-
NORTHEAST NEBRASKA

CITY           SKY/WX    TMP DP  RH WIND       PRES   REMARKS
NORFOLK        CLEAR     65  25  22 S20G26    29.82F
ALBION         CLEAR     65  26  22 S17G25    29.83F
BLAIR          CLEAR     67  28  23 S14       29.91S
FREMONT        CLEAR     66  28  23 S14       29.90S
TEKAMAH        CLEAR     64  34  32 S17       29.88F
WAYNE          PTCLDY    65  26  22 S18       29.83F
$$

NEZ050>053-065>068-078-088>093-240200-
SOUTHEAST NEBRASKA

CITY           SKY/WX    TMP DP  RH WIND       PRES   REMARKS
LINCOLN        CLEAR     64  29  26 S15       29.92S
OMAHA EPPLEY   MOCLDY    69  28  21 S14       29.91F
BEATRICE       CLOUDY    63  31  29 S10       29.94S
FALLS CITY     PTCLDY    63  33  32 S8        29.95F
NEBRASKA CITY  CLEAR     63  21  19 S10       29.94S
PLATTSMOUTH    PTCLDY    64  20  18 S8        29.93S
$$

NEZ044-045-051>053-067-240200-
OMAHA AREA

CITY           SKY/WX    TMP DP  RH WIND       PRES   REMARKS
OMAHA EPPLEY   MOCLDY    69  28  21 S14       29.91F
BLAIR          CLEAR     67  28  23 S14       29.91S
FREMONT        CLEAR     66  28  23 S14       29.90S
MILLARD        CLEAR     69  32  25 S7        29.91F
OFFUTT AFB     CLEAR     66  26  22 S10       29.92S
PLATTSMOUTH    PTCLDY    64  20  18 S8        29.93S
WAHOO          FAIR      65  27  23 S14       29.91R
$$




USA.gov is the U.S. government's official web portal to all federal, state and local government web resources and services.